Chehalis, WA
on Wednesday, January 23, 2013

Wednesday
Previous Day Next Day
Daily Summary
 ActualAverage (KOLM)Record (KOLM)
Temperature
Mean Temperature °F 40°F  
Max Temperature 39°F 47°F 56°F (2005)
Min Temperature 35°F 34°F 4°F (1969)
Degree Days
Heating Degree Days 28 25  
Month to date heating degree days 585  
Since 1 July heating degree days 2855  
Cooling Degree Days 0 0  
Month to date cooling degree days 0  
Year to date cooling degree days 0  
Moisture
Dew Point 33°F   
Average Humidity 85    
Maximum Humidity 100    
Minimum Humidity 70    
Precipitation
Precipitation 0.12 in 0.24 in 1.83 in (1982)
Month to date precipitation 5.97  
Year to date precipitation 5.97  
Wind
Wind Speed 4 mph   
Max Wind Speed 10 mph   
Max Gust Speed mph   
Visibility 7 miles   
Events Rain   

Key: T is trace of precipitation, MM is missing value
Source: NWS Daily Summary
Time(PST)TemperatureDew PointHumidity Pressure Visibility Wind DirectionWind SpeedGust SpeedPrecipitationEvents Conditions
12:15 AM 35.6°F 32.0°F 87% 29.94 in 7.0 miles Calm Calm - N/A   Overcast
12:35 AM 37.4°F 30.2°F 75% 29.96 in 5.0 miles WSW 3.5 mph - N/A   Haze
12:55 AM 37.4°F 30.2°F 75% 29.94 in 10.0 miles Calm Calm - N/A   Overcast
1:15 AM 37.4°F 30.2°F 75% 29.96 in 10.0 miles SSW 5.8 mph - N/A   Overcast
1:35 AM 37.4°F 28.4°F 70% 29.95 in 10.0 miles WSW 3.5 mph - N/A   Overcast
1:55 AM 37.4°F 30.2°F 75% 29.96 in 10.0 miles SSW 6.9 mph - N/A   Overcast
2:15 AM 37.4°F 30.2°F 75% 29.97 in 8.0 miles SW 4.6 mph - N/A   Unknown
2:35 AM 37.4°F 30.2°F 75% 29.97 in 7.0 miles West 4.6 mph - N/A   Overcast
2:55 AM 37.4°F 30.2°F 75% 29.96 in 10.0 miles SE 3.5 mph - N/A   Overcast
3:15 AM 37.4°F 30.2°F 75% 29.96 in 10.0 miles West 3.5 mph - N/A   Overcast
3:35 AM 37.4°F 32.0°F 81% 29.97 in 5.0 miles WSW 4.6 mph - N/A   Haze
3:55 AM 37.4°F 30.2°F 75% 29.92 in 9.0 miles North 6.9 mph - N/A   Overcast
4:15 AM 37.4°F 30.2°F 75% 29.92 in 10.0 miles SW 3.5 mph - N/A   Overcast
4:55 AM 37.4°F 30.2°F 75% 29.93 in 10.0 miles WSW 4.6 mph - N/A   Overcast
5:15 AM 37.4°F 28.4°F 70% 29.94 in 10.0 miles SSW 5.8 mph - N/A   Overcast
5:35 AM 37.4°F 28.4°F 70% 29.89 in 9.0 miles NE 6.9 mph - N/A   Overcast
5:55 AM 37.4°F 28.4°F 70% 29.92 in 7.0 miles West 4.6 mph - N/A   Overcast
6:15 AM 37.4°F 28.4°F 70% 29.93 in 6.0 miles Calm Calm - N/A   Haze
6:35 AM 37.4°F 30.2°F 75% 29.93 in 10.0 miles SSW 4.6 mph - N/A   Unknown
6:55 AM 37.4°F 30.2°F 75% 29.91 in 9.0 miles Calm Calm - N/A   Unknown
7:15 AM 37.4°F 32.0°F 81% 29.92 in 8.0 miles West 3.5 mph - N/A   Overcast
7:35 AM 37.4°F 32.0°F 81% 29.91 in 5.0 miles Calm Calm - N/A   Haze
7:55 AM 37.4°F 32.0°F 81% 29.91 in 10.0 miles Calm Calm - N/A   Overcast
8:15 AM 37.4°F 32.0°F 81% 29.90 in 9.0 miles Calm Calm - N/A   Overcast
8:35 AM 35.6°F 32.0°F 87% 29.90 in 9.0 miles SW 3.5 mph - N/A   Mostly Cloudy
8:55 AM 37.4°F 32.0°F 81% 29.91 in 7.0 miles SSW 5.8 mph - N/A Rain Light Rain
9:15 AM 37.4°F 32.0°F 81% 29.92 in 4.0 miles SW 3.5 mph - N/A Rain Light Rain
9:35 AM 37.4°F 32.0°F 81% 29.92 in 9.0 miles Calm Calm - N/A Rain Light Rain
9:55 AM 35.6°F 32.0°F 87% 29.92 in 5.0 miles Calm Calm - N/A Rain Light Rain
10:15 AM 35.6°F 32.0°F 87% 29.92 in 5.0 miles SSW 3.5 mph - N/A Rain Light Rain
10:35 AM 35.6°F 32.0°F 87% 29.91 in 5.0 miles Calm Calm - 0.01 in Rain Light Rain
10:55 AM 37.4°F 32.0°F 81% 29.90 in 7.0 miles SE 4.6 mph - 0.02 in Rain Light Rain
11:15 AM 37.4°F 32.0°F 81% 29.92 in 5.0 miles SSW 8.1 mph - N/A   Partly Cloudy
11:35 AM 37.4°F 32.0°F 81% 29.91 in 5.0 miles South 6.9 mph - 0.01 in Rain Light Rain
11:55 AM 37.4°F 32.0°F 81% 29.90 in 5.0 miles SSW 6.9 mph - 0.02 in Rain Light Rain
12:15 PM 35.6°F 32.0°F 87% 29.91 in 7.0 miles SSW 5.8 mph - N/A Rain Light Rain
12:35 PM 37.4°F 32.0°F 81% 29.90 in 7.0 miles South 6.9 mph - N/A Rain Light Rain
12:55 PM 37.4°F 33.8°F 87% 29.90 in 7.0 miles South 5.8 mph - 0.01 in Rain Light Rain
1:15 PM 37.4°F 33.8°F 87% 29.90 in 9.0 miles SSE 6.9 mph - N/A   Mostly Cloudy
1:35 PM 37.4°F 33.8°F 87% 29.90 in 9.0 miles SSE 8.1 mph - N/A   Overcast
2:15 PM 37.4°F 33.8°F 87% 29.92 in 5.0 miles South 8.1 mph - 0.02 in   Overcast
2:35 PM 37.4°F 35.6°F 93% 29.92 in 3.0 miles South 8.1 mph - 0.04 in   Mostly Cloudy
2:55 PM 37.4°F 35.6°F 93% 29.93 in 5.0 miles SSW 6.9 mph - 0.05 in Rain Light Rain
3:15 PM 37.4°F 35.6°F 93% 29.95 in 5.0 miles South 5.8 mph - N/A Rain Light Rain
3:35 PM 37.4°F 37.4°F 100% 29.96 in 5.0 miles South 3.5 mph - N/A Rain Light Rain
3:55 PM 39.2°F 37.4°F 93% 29.97 in 7.0 miles South 9.2 mph - 0.01 in Rain Light Rain
4:15 PM 39.2°F 37.4°F 93% 29.98 in 5.0 miles SSE 8.1 mph - N/A Rain Light Rain
4:35 PM 39.2°F 35.6°F 87% 29.99 in 7.0 miles South 9.2 mph - 0.01 in Rain Light Rain
5:15 PM 37.4°F 35.6°F 93% 30.01 in 6.0 miles South 9.2 mph - N/A   Overcast
5:35 PM 37.4°F 35.6°F 93% 30.02 in 7.0 miles SSE 9.2 mph - N/A   Overcast
5:55 PM 37.4°F 35.6°F 93% 30.02 in 7.0 miles SSE 8.1 mph - N/A   Overcast
6:15 PM 35.6°F 35.6°F 100% 30.02 in 7.0 miles SSE 10.4 mph - N/A   Overcast
6:35 PM 37.4°F 35.6°F 93% 30.03 in 7.0 miles South 8.1 mph - N/A   Overcast
6:55 PM 37.4°F 35.6°F 93% 30.04 in 7.0 miles South 6.9 mph - N/A   Overcast
7:15 PM 37.4°F 35.6°F 93% 30.06 in 7.0 miles SSW 6.9 mph - N/A   Overcast
7:35 PM 37.4°F 35.6°F 93% 30.07 in 8.0 miles South 8.1 mph - N/A   Overcast
7:55 PM 37.4°F 35.6°F 93% 30.08 in 7.0 miles South 6.9 mph - N/A   Overcast
8:15 PM 37.4°F 35.6°F 93% 30.10 in 8.0 miles South 6.9 mph - N/A   Overcast
8:35 PM 37.4°F 35.6°F 93% 30.10 in 8.0 miles South 8.1 mph - N/A   Overcast
8:55 PM 37.4°F 35.6°F 93% 30.12 in 5.0 miles South 8.1 mph - N/A   Overcast
9:15 PM 37.4°F 35.6°F 93% 30.13 in 4.0 miles SSW 5.8 mph - N/A   Overcast
9:55 PM 37.4°F 35.6°F 93% 30.15 in 7.0 miles South 6.9 mph - N/A   Overcast
10:15 PM 37.4°F 35.6°F 93% 30.16 in 7.0 miles South 5.8 mph - N/A   Overcast
10:35 PM 37.4°F 35.6°F 93% 30.16 in 7.0 miles South 6.9 mph - N/A   Overcast
10:55 PM 37.4°F 35.6°F 93% 30.17 in 7.0 miles South 5.8 mph - N/A   Overcast
11:15 PM 37.4°F 35.6°F 93% 30.18 in 7.0 miles South 5.8 mph - N/A   Overcast
11:35 PM 37.4°F 35.6°F 93% 30.19 in 7.0 miles SW 4.6 mph - N/A   Overcast
11:55 PM 37.4°F 35.6°F 93% 30.19 in 7.0 miles South 6.9 mph - N/A   Overcast
Moon Phase
Jan. 23 Jan. 26 Feb. 03 Feb. 10 Feb. 17
Sunrise:07:45 AM (PST) Moon Rise:02:14 PM (PST)
Sunset:05:02 PM (PST) Moon Set:05:04 AM (PST)

Copyright © 2014 The Weather Underground, Inc.